sat.trackr.live / text

‹ back to catalog

STARLINK-3747

NORAD 52306 · 2022-041AX

PAYLOAD ACTIVE UNKNOWN

§ Identity

Operator
Country
US
Launch date
2022-04-21
Launch site
AFETR
Launch vehicle
Mass (kg)
RCS (m²)

Purposes: comms

External: N2YO · Heavens-Above · Gunter

§ Orbital elements

Epoch: 2026-05-25T03:32:19.741344Z

Period
95.44 min
Inclination
53.2138°
Eccentricity
0.0000971
Mean motion
15.08845325 rev/d
Perigee alt
539.1 km
Apogee alt
540.4 km
Semi-major
6,917.9 km
B*
1.1025e-4
RAAN
105.8898°
Arg perigee
88.9405°
Mean anomaly
271.1698°
Rev number
22,740

§ Raw data

STARLINK-37471 52306U 22041AX  26145.14745071  .00001468  00000+0  11025-3 0  99922 52306  53.2138 105.8898 0000971  88.9405 271.1698 15.08845325227400

JSON: /api/v1/satellites/52306 · /tle

For live sub-satellite position, see the globe view (requires WebGL).

§ Visibility from observer

Set your observer location to see the next 7 days of passes ≥ 10°. The values pass through the URL so the page stays shareable.

No JS? Fill the form by hand. The geolocation button needs JavaScript.